Location: Newark
(53.3503°N, 9.6158°W)
Time: 01:26:57
(UTC+00:00)

Envisat - Pass Details

Date: 24 October 2019
Orbit: 764 x 766 km, 98.1° (Epoch: 13 November)

Event Time Altitude Azimuth Distance (km) Brightness Sun altitude
Rises 20:03:34 0° 213° (SSW) 3,225 6.5 -24.5°
Reaches altitude 10° 20:06:42 10° 234° (SW) 2,304 6.0 -24.9°
Maximum altitude 20:09:56 17° 274° (W) 1,882 5.9 -25.4°
Drops below altitude 10° 20:13:10 10° 313° (NW) 2,314 6.3 -25.8°
Sets 20:16:21 0° 334° (NNW) 3,246 6.8 -26.3°
